Location: Hohenfelde
(53.8441°N, 9.6220°E)
Time: 11:30:42
(UTC+00:00)

SL-8 R/B - Pass Details

Date: 14 July 2020
Orbit: 656 x 667 km, 48.4° (Epoch: 12 August)

Event Time Altitude Azimuth Distance (km) Brightness Sun altitude
Exits shadow 01:46:36 - 234° (SW) 2,132 5.7 -8.8°
Reaches altitude 10° 01:46:45 10° 234° (SW) 2,083 5.7 -8.8°
Maximum altitude 01:51:11 38° 166° (SSE) 1,006 4.3 -8.4°
Drops below altitude 10° 01:55:38 10° 99° (E) 2,079 6.6 -8.1°
Sets 01:58:05 0° 92° (E) 2,991 7.6 -7.9°
